User: anonymous   Login
Location: Unspecified
(42.1900°N, 71.3291°W)
Time: 00:10:52
(UTC-04:00)
Language:

Resurs 1-4 Rocket - Orbit

View from above orbital plane
View from above orbital plane
View from above satellite
View from above satellite

Ground track
Ground track

The orbit data is extracted from the following two-line orbital elements,

1 25400U 98043G   15124.09946060  .00000042  00000-0  35491-4 0  9994
2 25400 098.3803 090.9069 0010808 050.8144 309.3995 14.25324420874651
Epoch (UTC): 04 May 2015 02:23:13
Eccentricity: 0.0010808
inclination: 98.3803°
perigee height: 799 km
apogee height: 815 km
right ascension of ascending node: 90.9069°
argument of perigee: 50.8144°
revolutions per day: 14.25324420
mean anomaly at epoch: 309.3995°
orbit number at epoch: 87465

The dashed part of the orbit path shows where the satellite is in the earth's shadow,  

DLR